Vertical_Velocity
0 0 1 1 -2 -1 -2 2 -0 2 1 -0 2 3 1 -0 -2 1 -9 -1 6 -2 3 4 1 4 4 1 2 7 -1 -6 -11 2 5 2 -2 -2 -7 -3 -2 -6 0 -2 2
-0 0 0 -0 -1 -2 -1 -1 -2 -1 -2 -1 -2 -0 3 -1 -2 -7 5 4 4 1 1 3 2 3 6 0 2 -1 -1 -7 10 13 0 0 1 -0 1 1 -3 -3 -1 -2 2
1 -0 -0 -0 0 1 1 3 2 1 0 -0 -1 -3 -1 2 -6 4 0 1 4 2 4 6 6 1 10 5 -8 1 -14 16 -1 1 1 -1 -1 -1 4 -4 1 3 -3 -4 -1
-1 -2 -1 1 1 1 2 -3 -1 2 3 -1 1 1 1 -2 -2 1 -2 -6 11 6 -2 4 0 -4 -4 -10 3 -4 10 0 3 3 -3 4 1 -4 -0 14 -1 -1 0 1 -2
-2 -0 -1 -1 0 -1 -1 1 -0 -1 3 1 2 3 -0 -5 -20 5 3 2 1 5 4 0 -2 11 -9 0 6 0 4 2 4 3 -2 1 -1 3 -1 -1 1 -3 -0 1 -0
-1 -3 -2 -2 -1 0 -1 0 -4 -0 3 -1 1 2 0 -30 10 10 15 2 6 1 11 -8 -3 10 16 -4 -5 5 5 1 -2 3 1 -1 1 -1 4 0 2 -3 -1 -3 2
-2 -0 1 -1 1 -1 1 0 2 -0 2 2 5 3 -9 1 3 3 14 4 9 4 2 4 10 -11 7 11 1 4 0 4 -7 1 -3 4 -12 -10 -5 -1 -1 -1 -0 -3 -1
2 -1 2 4 1 1 1 -1 3 2 2 4 2 4 -25 3 8 -12 1 -10 14 9 17 4 5 15 -3 9 0 2 0 -1 -11 1 1 -0 -13 2 -5 -3 -1 -1 -0 -5 -5
-2 1 -1 -3 2 4 1 1 0 1 -0 5 4 -3 -11 -4 -1 -1 -1 3 3 10 10 2 13 4 14 -2 6 7 -4 -2 1 0 6 -8 11 6 -1 -2 1 -0 -2 -3 -4
-1 0 -0 1 1 1 2 -0 2 -1 -1 -0 1 1 -3 -5 -4 -3 -4 24 8 14 8 3 4 2 6 9 -22 -10 3 5 1 -1 4 3 -1 -4 -1 -2 -3 -0 1 -0 -2
-2 -4 -2 4 5 -2 4 2 3 -1 1 3 -0 1 -0 -2 -1 9 7 12 6 19 2 3 -3 2 -0 -1 16 12 -2 -3 -7 -1 3 1 -3 -2 -0 -2 -2 1 1 2 0
1 -3 -2 -2 -0 -2 -2 1 4 1 -3 1 -3 -5 -2 1 1 12 1 -3 -3 2 3 -0 -14 5 8 -1 2 -4 0 1 -2 3 4 2 -3 -4 -5 -4 -2 -1 -3 -3 -2
0 1 -1 -1 1 2 -4 -1 9 6 -2 2 -1 -2 -4 9 -9 7 -11 1 2 4 -3 2 -5 2 5 8 -5 -1 -2 1 2 -0 3 1 -9 -0 -4 -3 -0 -0 -1 -3 -2
-0 -1 5 -4 2 -0 4 -5 -3 -1 -1 -3 0 -4 3 10 -13 37 -1 16 8 22 9 2 -10 -6 -5 13 1 -2 -4 5 -0 -0 5 -3 5 2 1 2 -0 -0 -1 -2 0
0 -1 0 -4 -6 -4 -3 -6 -4 -1 4 3 -1 3 -3 -5 5 -3 42 9 7 30 -4 -6 -11 -0 -3 6 1 -2 5 5 1 1 -2 -2 1 4 -1 1 1 0 1 1 0
1 -2 4 3 2 2 -1 -1 -1 -1 7 1 2 2 -3 -1 3 5 23 5 3 9 10 -10 5 15 -2 16 6 10 2 6 -1 -1 2 0 2 2 -0 -0 1 2 3 2 1
2 0 0 -1 -0 -1 -0 -6 -3 1 -1 -4 11 -11 0 -5 13 -2 10 -1 -1 -4 5 13 9 1 3 3 7 3 1 1 3 3 1 -1 1 6 -0 1 1 2 1 2 2
1 -3 -1 -1 -1 -1 -2 -7 -10 6 1 -3 -6 -1 4 -3 -3 15 2 -5 -1 -2 -3 -1 4 4 2 -7 -5 1 5 -2 -3 -1 2 -0 -2 5 -0 0 -0 1 1 0 -0
-0 -2 -2 -2 -2 0 3 -9 -2 -3 1 0 23 20 13 0 -0 -9 -3 -5 -1 -4 -6 -6 2 3 2 1 0 -5 -3 -3 -3 -2 -0 -1 -1 0 3 3 -0 -1 2 -0 1
-0 -2 -2 -3 -4 -1 -7 -5 -3 -1 -4 1 2 -2 -2 2 -5 -2 2 1 -0 0 -2 -15 -3 5 0 2 2 -5 -2 -1 -0 0 1 1 -1 5 0 -0 -1 2 -1 -2 -2
-0 -2 -2 -1 -5 -5 -13 -4 0 -2 -0 -1 3 -0 -1 -4 -4 -5 -1 2 -2 0 3 4 -2 1 1 1 1 -2 -1 -2 -1 -1 0 0 5 1 -2 0 0 1 1 0 -1
-2 -3 1 -1 -4 -7 0 -2 1 5 1 -2 2 -0 -4 -2 1 -2 -2 -1 -0 2 -1 -6 -2 -1 -1 -2 -2 -2 -1 1 1 -1 -1 -2 6 4 5 -1 -1 1 3 1 1
-0 -2 -0 -2 -1 -2 -1 -2 -1 -1 -1 0 -2 2 3 -2 -6 -1 -1 0 -1 -1 2 3 0 -3 1 -1 -3 -2 -3 -2 -1 -2 -2 1 5 2 1 2 -0 -1 2 1 -0
-1 -1 -1 0 -0 -1 0 -2 -3 2 3 1 -3 1 -0 -1 -1 -4 -1 0 0 2 -1 -0 0 -1 -3 0 -0 -3 -2 -1 2 -1 -1 -1 4 3 3 4 1 -3 -1 0 -2
-1 -2 -2 -1 -1 -1 -1 -0 -0 -3 -2 0 -0 -1 -1 -0 -0 -1 1 -1 0 -2 -1 -0 -2 -2 -2 -2 -3 -1 1 1 -2 -1 -2 1 1 -1 -0 -1 2 4 -0 -1 -1
-2 1 -2 -5 1 -1 -1 1 2 -1 0 0 -1 0 -0 -2 -2 -1 1 2 -2 0 0 -2 -2 0 1 1 0 -1 -1 -2 2 1 -3 -1 -5 1 2 -1 1 -3 -3 -2 1
1 0 -1 -2 -2 1 -4 1 1 -0 -0 -0 -2 -1 -1 -1 -1 1 0 -0 0 -0 -1 -1 -1 -1 -0 -1 0 0 1 -0 0 -1 3 -5 4 1 1 0 -1 -1 -1 1 1
Height
3070 3067 3064 3060 3056 3054 3051 3049 3047 3046 3046 3048 3049 3050 3049 3050 3051 3053 3055 3064 3071 3072 3076 3080 3084 3089 3092 3095 3100 3105 3110 3111 3115 3118 3123 3125 3129 3134 3138 3142 3145 3147 3150 3152 3155
3064 3060 3056 3052 3049 3046 3042 3038 3036 3034 3033 3034 3036 3038 3039 3040 3041 3043 3051 3059 3065 3067 3070 3073 3078 3084 3088 3090 3094 3098 3101 3105 3113 3115 3116 3120 3126 3130 3134 3137 3140 3143 3146 3149 3152
3058 3053 3049 3044 3039 3035 3031 3028 3026 3024 3024 3025 3025 3027 3029 3030 3033 3033 3045 3054 3058 3061 3064 3068 3073 3080 3083 3086 3089 3093 3094 3103 3102 3107 3114 3117 3121 3125 3129 3132 3136 3139 3141 3145 3148
3048 3044 3038 3033 3028 3025 3022 3019 3017 3015 3015 3017 3018 3020 3021 3021 3030 3029 3035 3044 3051 3054 3059 3061 3067 3073 3077 3080 3085 3089 3091 3094 3099 3103 3108 3112 3115 3120 3125 3130 3130 3133 3136 3140 3143
3040 3034 3028 3024 3020 3017 3014 3012 3011 3010 3009 3010 3012 3013 3013 3013 3015 3025 3027 3031 3040 3046 3051 3056 3061 3067 3071 3077 3081 3083 3087 3091 3096 3099 3104 3108 3111 3115 3119 3122 3124 3128 3131 3135 3139
3033 3027 3022 3017 3014 3011 3009 3007 3006 3005 3004 3005 3006 3007 3007 3007 3015 3018 3020 3024 3029 3038 3046 3050 3056 3063 3070 3073 3076 3080 3085 3087 3092 3096 3100 3105 3106 3108 3113 3117 3120 3124 3127 3130 3133
3027 3021 3016 3013 3009 3005 3003 3001 3000 3000 3000 3000 3001 3001 3001 3003 3006 3010 3015 3018 3025 3031 3039 3047 3055 3059 3064 3070 3073 3079 3082 3085 3088 3093 3096 3101 3101 3098 3106 3113 3116 3118 3122 3124 3128
3020 3015 3010 3007 3004 3000 2998 2997 2995 2995 2995 2996 2996 2996 2993 2998 2999 3002 3004 3012 3020 3028 3036 3045 3052 3057 3063 3067 3071 3077 3080 3081 3083 3088 3091 3097 3091 3096 3100 3105 3109 3112 3116 3119 3122
3015 3009 3004 3000 2997 2994 2993 2992 2991 2991 2991 2991 2991 2991 2990 2991 2992 2998 3001 3007 3018 3025 3033 3041 3049 3052 3058 3063 3069 3072 3073 3077 3082 3082 3087 3089 3090 3094 3096 3097 3102 3106 3109 3113 3117
3010 3004 3000 2996 2991 2988 2986 2986 2986 2986 2987 2986 2985 2990 2986 2987 2987 2988 2994 3001 3014 3023 3030 3036 3043 3047 3050 3056 3058 3061 3067 3073 3078 3078 3080 3083 3085 3087 3092 3095 3099 3101 3104 3106 3110
3006 3002 2996 2990 2985 2981 2978 2979 2982 2982 2980 2981 2981 2982 2982 2982 2982 2984 2991 3002 3011 3018 3024 3030 3035 3032 3039 3050 3060 3063 3066 3071 3075 3076 3078 3080 3082 3083 3087 3089 3093 3096 3098 3100 3101
3005 2999 2992 2986 2981 2977 2973 2972 2973 2976 2975 2976 2976 2975 2977 2979 2978 2983 2992 3003 3009 3015 3023 3031 3028 3035 3043 3049 3054 3059 3063 3068 3071 3072 3074 3075 3077 3079 3082 3085 3086 3088 3090 3092 3094
3004 2997 2990 2984 2978 2974 2971 2968 2969 2971 2973 2973 2972 2971 2972 2976 2978 2985 2995 3001 3009 3015 3019 3024 3028 3035 3039 3044 3051 3057 3061 3065 3068 3069 3071 3073 3075 3076 3076 3078 3079 3081 3083 3085 3088
3004 2997 2991 2984 2981 2974 2970 2967 2968 2969 2972 2973 2971 2971 2972 2973 2980 2982 2993 3002 3007 3010 3019 3025 3028 3032 3037 3040 3047 3052 3057 3061 3064 3068 3069 3071 3070 3070 3070 3072 3073 3075 3077 3080 3083
3005 2998 2990 2982 2979 2975 2973 2969 2968 2971 2970 2975 2972 2972 2971 2976 2978 2984 2988 2998 3006 3002 3013 3023 3027 3029 3034 3039 3043 3049 3054 3058 3062 3064 3066 3069 3071 3067 3068 3068 3069 3071 3073 3075 3077
3006 3000 2992 2985 2981 2976 2974 2972 2973 2974 2974 2977 2976 2978 2979 2978 2982 2985 2993 3000 3004 3008 3016 3021 3026 3028 3031 3033 3040 3045 3052 3057 3060 3063 3067 3065 3066 3064 3066 3066 3066 3068 3069 3071 3073
3006 3000 2993 2986 2982 2978 2976 2975 2976 2975 2983 2983 2980 2982 2984 2986 2986 2990 2995 3003 3009 3015 3017 3021 3025 3027 3030 3033 3039 3043 3049 3056 3061 3063 3058 3061 3063 3061 3061 3062 3064 3066 3067 3069 3071
3007 3002 2995 2991 2985 2979 2978 2979 2980 2986 2985 2984 2985 2987 2986 2991 2997 2998 3003 3008 3012 3015 3020 3025 3031 3030 3030 3035 3041 3044 3046 3048 3049 3052 3053 3059 3058 3057 3059 3059 3062 3064 3065 3067 3069
3010 3005 2999 2995 2990 2986 2983 2984 2992 2988 2990 2988 2984 2987 2992 2996 2998 3005 3010 3013 3016 3019 3022 3027 3031 3031 3035 3036 3042 3043 3046 3048 3048 3052 3054 3053 3054 3055 3055 3057 3060 3063 3063 3064 3066
3014 3009 3004 3001 2998 2993 2991 2992 2996 2995 2994 2993 2992 2995 2998 3004 3007 3010 3014 3018 3020 3022 3024 3028 3031 3035 3037 3039 3042 3044 3047 3050 3048 3050 3048 3050 3051 3049 3052 3055 3059 3061 3061 3062 3062
3017 3013 3009 3006 3004 2999 2996 2999 3000 3000 2998 2997 2997 3000 3004 3008 3011 3013 3017 3020 3022 3023 3024 3026 3029 3038 3038 3039 3040 3043 3045 3046 3046 3046 3043 3043 3046 3047 3050 3054 3057 3059 3059 3059 3058
3019 3015 3013 3012 3009 3003 3002 3002 3003 3003 3003 3004 3006 3006 3008 3010 3013 3015 3018 3019 3022 3025 3027 3028 3030 3036 3038 3038 3039 3041 3043 3044 3043 3046 3045 3045 3047 3046 3049 3052 3054 3055 3055 3054 3053
3019 3018 3015 3014 3013 3010 3009 3008 3007 3007 3007 3008 3009 3010 3011 3013 3017 3017 3019 3021 3023 3025 3027 3028 3030 3034 3039 3041 3039 3039 3039 3040 3042 3043 3043 3043 3046 3046 3048 3051 3052 3052 3051 3050 3049
3021 3018 3017 3015 3014 3014 3012 3012 3011 3011 3010 3011 3012 3014 3015 3016 3016 3018 3019 3022 3023 3025 3026 3028 3028 3030 3032 3031 3032 3033 3034 3037 3039 3041 3042 3043 3043 3044 3047 3049 3049 3048 3047 3046 3045
3022 3020 3017 3016 3015 3014 3014 3014 3014 3013 3014 3014 3014 3015 3017 3018 3018 3019 3020 3021 3023 3025 3026 3028 3029 3031 3031 3031 3031 3031 3031 3032 3034 3038 3040 3040 3041 3043 3046 3047 3047 3045 3043 3043 3042
3025 3023 3021 3019 3017 3016 3015 3015 3015 3016 3016 3016 3016 3016 3017 3017 3018 3018 3020 3022 3023 3025 3026 3028 3029 3030 3030 3030 3030 3030 3030 3030 3032 3034 3035 3037 3039 3041 3042 3042 3042 3041 3040 3040 3038
3025 3024 3023 3022 3020 3019 3017 3017 3017 3016 3017 3017 3018 3017 3017 3017 3017 3018 3020 3021 3022 3023 3025 3028 3028 3029 3028 3027 3027 3027 3025 3026 3028 3030 3033 3035 3037 3037 3038 3038 3038 3038 3037 3035 3033